This is the latest recevied weather packets stored in our database for station/object G4GVZ-1. If no packets are shown the sender has not sent any weather packets the latest 10 day(s).
| Time | Temp. | Humidity | Pressure | Rain* | Wind** | Luminosity | Snow |
|---|---|---|---|---|---|---|---|
| 1777294849 | 21.11° C | 42% | 1023.5 hPa | 0 mm | - | - | - |
| 1777293949 | 20.56° C | 38% | 1023.8 hPa | 0 mm | - | - | - |
| 1777293049 | 19.44° C | 44% | 1023.9 hPa | 0 mm | - | - | - |
| 1777292148 | 20° C | 45% | 1024 hPa | 0 mm | - | - | - |
| 1777291248 | 19.44° C | 50% | 1024 hPa | 0 mm | - | - | - |
| 1777290348 | 19.44° C | 52% | 1024.2 hPa | 0 mm | - | - | - |
| 1777289448 | 19.44° C | 54% | 1024.3 hPa | 0 mm | - | - | - |
| 1777288548 | 18.89° C | 54% | 1024.4 hPa | 0 mm | - | - | - |
| 1777287647 | 18.89° C | 55% | 1024.4 hPa | 0 mm | - | - | - |
| 1777286748 | 18.89° C | 56% | 1024.3 hPa | 0 mm | - | - | - |
| 1777285848 | 18.33° C | 56% | 1024.4 hPa | 0 mm | - | - | - |
| 1777284948 | 19.44° C | 53% | 1024.3 hPa | 0 mm | - | - | - |
| 1777284049 | 18.33° C | 52% | 1024.4 hPa | 0 mm | - | - | - |
| 1777283149 | 17.78° C | 55% | 1024.3 hPa | 0 mm | - | - | - |
| 1777282249 | 17.78° C | 53% | 1024.5 hPa | 0 mm | - | - | - |
| 1777281349 | 16.67° C | 55% | 1024.5 hPa | 0 mm | - | - | - |
| 1777280448 | 16.67° C | 53% | 1024.3 hPa | 0 mm | - | - | - |
| 1777279548 | 15.56° C | 56% | 1024.5 hPa | 0 mm | - | - | - |
| 1777278647 | 15° C | 57% | 1024.5 hPa | 0 mm | - | - | - |
| 1777277749 | 15° C | 60% | 1024.5 hPa | 0 mm | - | - | - |
| 1777276849 | 15° C | 56% | 1024.5 hPa | 0 mm | - | - | - |
| 1777275949 | 15.56° C | 58% | 1024.4 hPa | 0 mm | - | - | - |
| 1777275048 | 15° C | 57% | 1024.4 hPa | 0 mm | - | - | - |
| 1777274148 | 14.44° C | 59% | 1024.4 hPa | 0 mm | - | - | - |
| 1777273248 | 13.33° C | 62% | 1024.2 hPa | 0 mm | - | - | - |
* Rain latest hour (hover to see other rain measurements)
** Current wind speed in m/s (hover to see current wind gust speed)